Terminal Aerodrome Forecast
Issued by NWS Green Bay, WI

Home | Current Version | Previous Version | Graphics & Text | Print | Product List | Glossary On
Versions: 1 2 3 4 5 6 7 8 9 10 11 12 13 14 15 16 17 18 19 20 21 22 23 24 25 26 27
000
FTUS43 KGRB 311134
TAFGRB
TAF
KGRB 311134Z 3112/0112 25004KT P6SM SKC
     FM311300 29012G18KT P6SM SCT050
     FM311800 30015G22KT P6SM SCT060
      TEMPO 3118/3122 BKN060
     FM010100 28006KT P6SM SKC=

USA.gov is the U.S. government's official web portal to all federal, state and local government web resources and services.